CW2548 Weather Reports


time (UTC)temp
C
wind
direction
speed
KPH
gust
KPH
rain 1hr
cm
rain 24hr
cm
rain mn
cm
humidity
%
barometer
mb
20260905214146 38 24 1.6 1.6 0.00 0.00 0.00 42 1009.2
20260905213146 39 343 4.8 9.7 0.00 0.00 0.00 41 1009.2
20260905212145 38 288 4.8 12.9 0.00 0.00 0.00 43 1009.3
20260905211145 38 305 11.3 16.1 0.00 0.00 0.00 42 1009.6
20260905210145 38 326 8.0 11.3 0.00 0.00 0.00 42 1009.8
20260905205206 39 149 1.6 3.2 0.00 0.00 0.00 41 1010.1
20260905204145 38 320 1.6 1.6 0.00 0.00 0.00 42 1010.3
20260905203146 38 294 4.8 6.4 0.00 0.00 0.00 43 1010.4
20260905202146 38 326 1.6 6.4 0.00 0.00 0.00 43 1010.6
20260905201145 38 277 4.8 8.0 0.00 0.00 0.00 42 1010.7
20260905200147 38 9 4.8 6.4 0.00 0.00 0.00 43 1010.8
20260905195146 38 282 8.0 12.9 0.00 0.00 0.00 43 1011.0
20260905194146 37 304 11.3 14.5 0.00 0.00 0.00 44 1011.2
20260905193206 37 30 4.8 6.4 0.00 0.00 0.00 45 1011.3
20260905192206 37 11 8.0 12.9 0.00 0.00 0.00 45 1011.5
20260905191146 37 328 8.0 11.3 0.00 0.00 0.00 48 1011.7
20260905190145 36 315 9.7 14.5 0.00 0.00 0.00 48 1011.9
20260905185147 37 336 8.0 12.9 0.00 0.00 0.00 48 1012.2
20260905184146 36 224 6.4 12.9 0.00 0.00 0.00 51 1012.4
20260905183145 36 247 4.8 8.0 0.00 0.00 0.00 52 1012.6
20260905182145 36 278 4.8 6.4 0.00 0.00 0.00 52 1012.7
20260905181145 36 348 3.2 6.4 0.00 0.00 0.00 52 1012.8
20260905180145 36 304 8.0 11.3 0.00 0.00 0.00 52 1012.8
20260905175145 36 227 6.4 11.3 0.00 0.00 0.00 53 1012.9
20260905174145 36 300 3.2 6.4 0.00 0.00 0.00 54 1012.9
20260905173146 35 242 4.8 8.0 0.00 0.00 0.00 56 1012.9
20260905172145 35 327 8.0 11.3 0.00 0.00 0.00 56 1012.8
20260905171205 35 285 1.6 4.8 0.00 0.00 0.00 56 1012.9
20260905170145 35 136 0.0 1.6 0.00 0.00 0.00 57 1012.9
20260905165146 35 0.0 3.2 0.00 0.00 0.00 57 1012.9
20260905164146 34 0.0 0.0 0.00 0.00 0.00 61 1013.0
20260905163145 33 296 6.4 8.0 0.00 0.00 0.00 61 1013.0
20260905162226 33 359 3.2 4.8 0.00 0.00 0.00 62 1013.1
20260905161145 34 354 1.6 3.2 0.00 0.00 0.00 62 1013.2
20260905160146 33 61 3.2 4.8 0.00 0.00 0.00 63 1013.3
20260905155206 33 347 0.0 4.8 0.00 0.00 0.00 62 1013.3
20260905154145 34 218 1.6 1.6 0.00 0.00 0.00 63 1013.4
20260905153206 34 11 0.0 1.6 0.00 0.00 0.00 64 1013.4
20260905152146 33 57 0.0 1.6 0.00 0.00 0.00 68 1013.4
20260905151146 32 0.0 0.0 0.00 0.00 0.00 69 1013.3
20260905150145 32 0.0 0.0 0.00 0.00 0.00 70 1013.3
20260905145145 32 0.0 0.0 0.00 0.00 0.00 71 1013.3
20260905144147 32 70 3.2 4.8 0.00 0.00 0.00 72 1013.2
20260905143145 32 0.0 0.0 0.00 0.00 0.00 73 1013.0
20260905142145 31 0.0 0.0 0.00 0.00 0.00 73 1012.9
20260905141145 31 0.0 0.0 0.00 0.00 0.00 76 1012.7
20260905140207 30 0.0 0.0 0.00 0.00 0.00 79 1012.8
20260905135309 30 0.0 0.0 0.00 0.00 0.00 81 1012.7
20260905134145 29 0.0 0.0 0.00 0.00 0.00 82 1012.6
20260905133145 29 0.0 0.0 0.00 0.00 0.00 83 1012.4
20260905132145 29 0.0 0.0 0.00 0.00 0.00 83 1012.2
20260905131147 29 0.0 0.0 0.00 0.00 0.00 83 1012.1
20260905130145 29 0.0 0.0 0.00 0.00 0.00 83 1012.0
20260905125145 29 0.0 0.0 0.00 0.00 0.00 83 1011.8
20260905124145 29 0.0 0.0 0.00 0.00 0.00 84 1011.9
20260905123226 29 0.0 0.0 0.00 0.00 0.00 84 1011.9
20260905122145 29 0.0 0.0 0.00 0.00 0.00 84 1011.8
20260905121145 29 0.0 0.0 0.00 0.00 0.00 84 1011.8
20260905120145 29 0.0 0.0 0.00 0.00 0.00 84 1011.8
20260905115205 29 0.0 0.0 0.00 0.00 0.00 84 1011.7
20260905114226 29 0.0 0.0 0.00 0.00 0.00 84 1011.6
20260905113145 29 0.0 0.0 0.00 0.00 0.00 84 1011.7
20260905112145 29 0.0 0.0 0.00 0.00 0.00 84 1011.8
20260905111206 29 0.0 0.0 0.00 0.00 0.00 84 1011.7
20260905110145 29 0.0 0.0 0.00 0.00 0.00 84 1011.7
20260905105145 29 0.0 0.0 0.00 0.00 0.00 85 1011.8
20260905104146 29 0.0 0.0 0.00 0.00 0.00 85 1011.8
20260905103145 29 0.0 0.0 0.00 0.00 0.00 85 1011.7
20260905102146 29 0.0 0.0 0.00 0.00 0.00 84 1011.8
20260905101205 29 0.0 0.0 0.00 0.00 0.00 84 1011.8
20260905100145 29 0.0 0.0 0.00 0.00 0.00 84 1011.8
20260905095145 29 0.0 0.0 0.00 0.00 0.00 84 1011.8
20260905094145 29 0.0 0.0 0.00 0.00 0.00 84 1011.7
20260905093145 29 0.0 0.0 0.00 0.00 0.00 84 1011.7
20260905092146 29 0.0 0.0 0.00 0.00 0.00 83 1011.7
20260905091145 29 235 0.0 1.6 0.00 0.00 0.00 83 1011.7
20260905090145 30 249 1.6 3.2 0.00 0.00 0.00 81 1011.8
20260905085207 30 242 3.2 4.8 0.00 0.00 0.00 79 1011.7
20260905084206 30 242 3.2 3.2 0.00 0.00 0.00 77 1011.8
20260905083227 30 287 3.2 4.8 0.00 0.00 0.00 76 1011.7
20260905082145 30 248 0.0 1.6 0.00 0.00 0.00 75 1011.9
20260905081145 30 248 1.6 3.2 0.00 0.00 0.00 75 1012.1
20260905080205 30 284 6.4 8.0 0.00 0.00 0.00 72 1012.0
20260905075145 30 298 8.0 9.7 0.00 0.00 0.00 68 1012.0
20260905074145 31 289 8.0 8.0 0.00 0.00 0.00 67 1012.0
20260905073145 31 280 1.6 4.8 0.00 0.00 0.00 66 1012.0
20260905072146 31 294 9.7 12.9 0.00 0.00 0.00 66 1012.0
20260905071145 31 293 8.0 9.7 0.00 0.00 0.00 67 1012.0
20260905070145 31 271 4.8 9.7 0.00 0.00 0.00 67 1012.1
20260905065225 31 305 4.8 4.8 0.00 0.00 0.00 67 1012.2
20260905064145 31 283 3.2 4.8 0.00 0.00 0.00 66 1012.3
20260905063146 32 281 0.0 3.2 0.00 0.00 0.00 65 1012.3
20260905062145 32 265 3.2 4.8 0.00 0.00 0.00 65 1012.4
20260905061145 32 246 0.0 1.6 0.00 0.00 0.00 65 1012.5
20260905060145 32 273 3.2 4.8 0.00 0.00 0.00 65 1012.4
20260905055145 32 257 0.0 1.6 0.00 0.00 0.00 66 1012.3
20260905054145 32 267 1.6 3.2 0.00 0.00 0.00 66 1012.4
20260905053146 32 277 1.6 3.2 0.00 0.00 0.00 66 1012.5
20260905052206 32 233 1.6 3.2 0.00 0.00 0.00 66 1012.5
20260905051146 32 260 3.2 6.4 0.00 0.00 0.00 66 1012.4
20260905050145 32 242 1.6 4.8 0.00 0.00 0.00 66 1012.4
20260905045145 32 244 3.2 3.2 0.00 0.00 0.00 66 1012.4
20260905044146 32 237 1.6 3.2 0.00 0.00 0.00 66 1012.3
20260905043145 32 234 4.8 6.4 0.00 0.00 0.00 65 1012.3
20260905042145 32 245 8.0 9.7 0.00 0.00 0.00 65 1012.3
20260905041145 32 240 1.6 6.4 0.00 0.00 0.00 65 1012.3
20260905040146 32 266 1.6 6.4 0.00 0.00 0.00 65 1012.2
20260905035145 32 277 0.0 3.2 0.00 0.00 0.00 65 1012.2
20260905034145 32 249 3.2 4.8 0.00 0.00 0.00 65 1012.1
20260905033146 32 257 1.6 4.8 0.00 0.00 0.00 65 1011.9
20260905032145 32 239 3.2 4.8 0.00 0.00 0.00 65 1011.8
20260905031145 32 283 1.6 4.8 0.00 0.00 0.00 65 1011.7
20260905030145 32 270 3.2 3.2 0.00 0.00 0.00 65 1011.5
20260905025146 32 280 1.6 3.2 0.00 0.00 0.00 65 1011.3
20260905024206 32 252 3.2 4.8 0.00 0.00 0.00 65 1011.2
20260905023145 32 266 3.2 6.4 0.00 0.00 0.00 65 1011.1
20260905022146 32 252 4.8 6.4 0.00 0.00 0.00 65 1011.0
20260905021206 32 244 3.2 8.0 0.00 0.00 0.00 65 1011.0
20260905020205 32 254 4.8 8.0 0.00 0.00 0.00 64 1010.9
20260905015146 32 253 3.2 8.0 0.00 0.00 0.00 63 1010.8
20260905014146 33 221 4.8 9.7 0.00 0.00 0.00 59 1010.8
20260905013146 33 242 4.8 6.4 0.00 0.00 0.00 59 1010.7
20260905012145 33 302 1.6 4.8 0.00 0.00 0.00 60 1010.7
20260905011145 33 255 1.6 11.3 0.00 0.00 0.00 61 1010.6
20260905010145 32 269 6.4 11.3 0.00 0.00 0.00 64 1010.6
20260905005146 32 236 6.4 9.7 0.00 0.00 0.00 64 1010.6
20260905004145 32 261 9.7 12.9 0.00 0.00 0.00 65 1010.7
20260905003146 32 224 9.7 12.9 0.00 0.00 0.00 64 1010.7
20260905002147 32 248 8.0 12.9 0.00 0.00 0.00 62 1010.7
20260905001147 32 245 11.3 14.5 0.00 0.00 0.00 61 1010.6
20260905000146 32 247 6.4 14.5 0.00 0.00 0.00 61 1010.5
20260904235147 32 246 6.4 11.3 0.00 0.00 0.00 62 1010.5
20260904234148 32 237 14.5 19.3 0.00 0.00 0.00 61 1010.6
20260904233147 32 241 9.7 16.1 0.00 0.00 0.00 60 1010.6
20260904232148 33 238 9.7 19.3 0.00 0.00 0.00 60 1010.8
20260904231147 33 237 11.3 16.1 0.00 0.00 0.00 58 1011.0
20260904230147 34 229 19.3 24.1 0.00 0.00 0.00 54 1010.8
20260904225149 35 251 9.7 14.5 0.00 0.00 0.00 55 1010.8
20260904224147 35 261 4.8 11.3 0.00 0.00 0.00 54 1010.9
20260904223147 35 286 11.3 12.9 0.00 0.00 0.00 54 1010.9
20260904222146 35 290 12.9 20.9 0.00 0.00 0.00 53 1010.9
20260904221146 36 319 11.3 17.7 0.00 0.00 0.00 52 1010.7
20260904220205 36 289 8.0 11.3 0.00 0.00 0.00 49 1010.7
20260904215206 36 282 1.6 4.8 0.00 0.00 0.00 49 1010.9